Location: Unspecified
(48.2082°N, 0.0000°E)
Time: 03:35:25
(UTC+00:00)

S-56A Canister/Altair - Pass Details

Date: 25 June 2019
Orbit: 633 x 2499 km, 38.9° (Epoch: 13 October)

Event Time Altitude Azimuth Distance (km) Brightness Sun altitude
Rises 13:54:06 0° 217° (SW) 5,738 12.5 56.8°
Reaches altitude 10° 13:58:55 10° 207° (SSW) 4,467 12.1 56.2°
Maximum altitude 14:07:59 27° 156° (SSE) 2,699 10.8 54.9°
Drops below altitude 10° 14:14:44 10° 103° (ESE) 3,258 10.6 54.0°
Sets 14:17:36 0° 91° (E) 3,972 10.9 53.6°
